This is the latest recevied weather packets stored in our database for station/object OH6GKW. If no packets are shown the sender has not sent any weather packets the latest 10 day(s).
| Time | Temp. | Humidity | Pressure | Rain* | Wind** | Luminosity | Snow |
|---|---|---|---|---|---|---|---|
| 1788171510 | 17.78° C | 90% | 1001.6 hPa | 0 mm | - | 223 W/m² | - |
| 1788171227 | 17.78° C | 90% | 1001.6 hPa | 0 mm | - | 269 W/m² | - |
| 1788170923 | 17.78° C | 90% | 1001.6 hPa | 0 mm | - | 239 W/m² | - |
| 1788170614 | 17.78° C | 93% | 1001.6 hPa | 0 mm | - | 239 W/m² | - |
| 1788170335 | 17.78° C | 95% | 1001.6 hPa | 0 mm | - | 187 W/m² | - |
| 1788170013 | 17.22° C | 92% | 1001.6 hPa | 0 mm | - | 190 W/m² | - |
| 1788169735 | 17.22° C | 94% | 1001.6 hPa | 0 mm | - | 262 W/m² | - |
| 1788169429 | 17.22° C | 93% | 1001.6 hPa | 0 mm | - | 257 W/m² | - |
| 1788169120 | 17.22° C | 93% | 1001.6 hPa | 0 mm | - | 218 W/m² | - |
| 1788168815 | 17.22° C | 92% | 1001.6 hPa | 0 mm | - | 132 W/m² | - |
| 1788168525 | 17.22° C | 92% | 1001.7 hPa | 0 mm | - | 179 W/m² | - |
| 1788168218 | 17.22° C | 92% | 1001.7 hPa | 0 mm | - | 100 W/m² | - |
| 1788167909 | 17.22° C | 93% | 1001.7 hPa | 0 mm | - | 144 W/m² | - |
| 1788167634 | 17.22° C | 92% | 1001.6 hPa | 0 mm | - | 187 W/m² | - |
| 1788167325 | 17.22° C | 93% | 1001.6 hPa | 0 mm | - | 227 W/m² | - |
| 1788167019 | 17.22° C | 93% | 1001.6 hPa | 0 mm | - | 241 W/m² | - |
| 1788166715 | 17.22° C | 93% | 1001.7 hPa | 0 mm | - | 260 W/m² | - |
| 1788166428 | 16.67° C | 95% | 1001.7 hPa | 0 mm | - | 274 W/m² | - |
| 1788166121 | 16.67° C | 94% | 1001.7 hPa | 0 mm | - | 234 W/m² | - |
| 1788165813 | 16.67° C | 95% | 1001.7 hPa | 0 mm | - | 130 W/m² | - |
| 1788165524 | 16.67° C | 95% | 1001.7 hPa | 0 mm | - | 90 W/m² | - |
| 1788165219 | 16.67° C | 95% | 1001.7 hPa | 0 mm | - | 81 W/m² | - |
| 1788164913 | 16.67° C | 95% | 1001.8 hPa | 0 mm | - | 130 W/m² | - |
| 1788164637 | 16.67° C | 96% | 1001.8 hPa | 0 mm | - | 123 W/m² | - |
| 1788164329 | 16.67° C | 97% | 1001.8 hPa | 0 mm | - | 141 W/m² | - |
* Rain since midnight (hover to see other rain measurements)
** Current wind speed in m/s (hover to see current wind gust speed)